Location: Cactus School
(34.5700°N, 118.0931°W)
Time: 14:01:37
(UTC-07:00)

Transit 4A - Pass Details

Date: 17 April 2024
Orbit: 871 x 971 km, 66.8° (Epoch: 21 May)

Event Time Altitude Azimuth Distance (km) Brightness Sun altitude
Rises 01:10:19 0° 310° (NW) 3,466 11.2 -44.5°
Enters shadow 01:11:07 - 306° (NW) 3,239 11.0 -44.5°
Reaches altitude 10° 01:14:11 10° 284° (WNW) 2,533 - -44.4°
Maximum altitude 01:16:49 13° 257° (WSW) 2,309 - -44.3°
Drops below altitude 10° 01:19:28 10° 230° (SW) 2,547 - -44.3°
Sets 01:23:25 0° 204° (SSW) 3,502 - -44.1°
